[[{"header":{"parameterUnit":"m.s-1","parameterCategory":1,"la1":30.2991,"la2":30.254,"lo1":-89.0895,"lo2":-89.0444,"dy":0.0017,"dx":0.0017,"nx":28,"ny":28,"refTime":"2023-04-02T21:00:00:Z","depth":0,"parameterNumber":2,"parameterNumberName":"U-component_of_WINDS"},"data":[0,0,0,0,0,0,0,0,0,0,0,0,0,0,0,0,0,0,0,0,0,0,0,0,0,0,0,0,0,0,0,0,0,0,0,0,0,0,0,0,0,0,0,0,0,0,0,0,0,0,0,0,0,0,0,0,0,0,-4.0561,-4.0562,0,-4.0613,-4.0614,-4.0615,-4.0574,-4.0573,-4.0571,-4.0569,-4.0621,-4.0624,-4.0627,0,0,0,0,0,0,0,0,0,0,0,0,0,-4.0426,-4.0428,-4.0561,-4.0562,-4.0562,-4.0613,-4.0614,-4.0615,-4.0575,-4.0573,-4.057,-4.0569,-4.062,-4.0624,-4.0627,0,0,0,0,0,0,0,0,0,0,0,0,0,-4.0482,-4.0429,-4.0561,-4.0548,-4.0548,-4.0613,-4.0614,-4.0615,-4.0575,-4.0573,-4.057,-4.0568,-4.0619,-4.0623,-4.0628,-4.0708,0,0,-4.0642,-4.0644,0,0,0,0,0,0,0,0,-4.0479,-4.0487,-4.055,-4.0549,-4.0549,-4.0585,-4.0585,-4.0646,-4.0576,-4.0565,-4.0569,-4.0566,-4.0611,-4.0616,-4.0632,-4.071,-4.0712,-4.0642,-4.0645,-4.0647,-4.0648,0,0,0,0,0,0,0,-4.0475,-4.0484,-4.0582,-4.0551,-4.055,-4.054,-4.0545,-4.0597,-4.0602,-4.0566,-4.0563,-4.057,-4.061,-4.0627,-4.0632,-4.0713,-4.0642,-4.0646,-4.0649,-4.065,-4.086,-4.0863,0,0,0,0,0,0,-4.0472,-4.0481,-4.058,-4.0583,-4.0507,-4.0545,-4.055,-4.0576,-4.0601,-4.0603,-4.0572,-4.0568,-4.0621,-4.0627,-4.0634,-4.0729,-4.0647,-4.0651,-4.0653,-4.0857,-4.0861,-4.0864,0,0,0,0,0,0,-4.047,-4.0482,-4.0578,-4.0532,-4.0543,-4.055,-4.0579,-4.0578,-4.0595,-4.0606,-4.0606,-4.0588,-4.0619,-4.0628,-4.069,-4.073,-4.0653,-4.0657,-4.0854,-4.0858,-4.0862,-4.0919,0,0,0,0,0,0,-4.0466,-4.0481,-4.0511,-4.0533,-4.0546,-4.0633,-4.0581,-4.0581,-4.0603,-4.0598,-4.0621,-4.0623,-4.0618,-4.0683,-4.0694,-4.0735,-4.066,-4.085,-4.0856,-4.0861,-4.0913,-4.0924,-4.0934,0,0,0,0,0,-4.0461,-4.0524,-4.0513,-4.0525,-4.0584,-4.0635,-4.0643,-4.0636,-4.0607,-4.0637,-4.0644,-4.0622,-4.0725,-4.069,-4.0702,-4.0744,-4.0848,-4.0854,-4.0861,-4.0908,-4.0922,-4.0934,0,0,0,0,0,0,-4.0506,-4.0527,-4.0514,-4.0586,-4.061,-4.0628,-4.0666,-4.0651,-4.0682,-4.0676,-4.0666,-4.0672,-4.0737,-4.0747,-4.0709,-4.0823,-4.0781,-4.079,-4.0814,-4.0827,-4.0837,-4.0832,-4.0664,0,0,0,0,0,-4.0525,-4.0565,-4.0581,-4.0643,-4.0655,-4.0659,-4.0681,-4.0675,-4.0698,-4.0707,-4.0719,-4.0742,-4.0779,-4.0804,-4.0839,-4.0916,-4.092,-4.0951,-4.0961,-4.097,-4.0977,-4.1018,-4.1032,-4.0885,-4.0885,-4.0885,0,0,-4.0562,-4.0579,-4.0605,-4.0652,-4.0669,-4.0711,-4.0667,-4.0713,-4.0744,-4.0714,-4.0773,-4.0783,-4.0808,-4.0878,-4.0909,-4.0888,-4.1019,-4.0978,-4.0985,-4.0987,-4.1026,-4.104,-4.1052,-4.089,-4.0889,-4.0888,0,0,-4.0652,-4.067,-4.0723,-4.0742,-4.0769,-4.0771,-4.0784,-4.0806,-4.0812,-4.0872,-4.085,-4.0887,-4.0952,-4.097,-4.0989,-4.1089,-4.1069,-4.1101,-4.1154,-4.1194,-4.1206,-4.1216,-4.125,-4.1263,-4.1109,-4.1109,-4.1109,0,-4.0695,-4.0758,-4.0752,-4.08,-4.0821,-4.0798,-4.0852,-4.087,-4.0907,-4.0923,-4.09,-4.0981,-4.0996,-4.107,-4.1095,-4.1111,-4.1125,-4.1097,-4.1205,-4.1215,-4.1224,-4.1257,-4.127,-4.1112,-4.1112,-4.1112,-4.1111,0,-4.0809,-4.0853,-4.0893,-4.093,-4.0957,-4.1007,-4.1009,-4.1037,-4.1029,-4.1034,-4.1095,-4.1114,-4.1152,-4.117,-4.1162,-4.1243,-4.1229,-4.1206,-4.1163,-4.1241,-4.1272,-4.1285,-4.1117,-4.1116,-4.1115,-4.1114,0,0,-4.0925,-4.0961,-4.0975,-4.0992,-4.1022,-4.1055,-4.1106,-4.1144,-4.1167,-4.1195,-4.1236,-4.1293,-4.1272,-4.1293,-4.1287,-4.1323,-4.14,-4.1295,-4.1295,-4.1312,-4.1489,-4.1505,-4.152,-4.1389,-4.1391,-4.1393,-4.1487,0,-4.1015,-4.1103,-4.11,-4.1181,-4.1221,-4.1202,-4.1245,-4.1268,-4.1275,-4.131,-4.1318,-4.1358,-4.1328,-4.134,-4.1375,-4.1383,-4.1435,-4.1377,-4.1426,-4.1428,-4.1417,-4.1536,-4.1553,-4.1639,-4.1499,-4.1501,-4.1502,0,-4.1131,-4.1163,-4.1249,-4.1273,-4.129,-4.1329,-4.1365,-4.1399,-4.1425,-4.1428,-4.1453,-4.1442,-4.1493,-4.1452,-4.1521,-4.1482,-4.1502,-4.151,-4.1513,-4.1515,-4.1468,-4.1539,-4.1667,-4.168,-4.1521,-4.152,-4.1519,0,-4.1205,-4.127,-4.133,-4.1345,-4.1376,-4.1404,-4.1418,-4.1441,-4.1465,-4.1497,-4.1512,-4.1549,-4.1569,-4.1598,-4.1598,-4.1568,-4.1668,-4.1627,-4.1671,-4.1671,-4.169,-4.1689,-4.1821,-4.1708,-4.1708,-4.1707,-4.1707,0,-4.1305,-4.1357,-4.1363,-4.14,-4.1458,-4.1456,-4.1514,-4.1525,-4.1547,-4.1585,-4.1571,-4.1607,-4.1606,-4.1643,-4.1644,-4.1701,-4.171,-4.1713,-4.1712,-4.1713,-4.1713,-4.1724,-4.1717,-4.1711,-4.171,-4.1709,-4.1709,0,-4.1396,-4.1402,-4.1466,-4.149,-4.1498,-4.154,-4.1561,-4.1595,-4.1602,-4.1651,-4.1662,-4.1673,-4.1716,-4.1719,-4.1769,-4.1769,-4.1838,-4.1832,-4.1829,-4.1827,-4.1871,-4.1866,-4.2013,-4.2032,-4.1909,-4.191,-4.1911,0,-4.1458,-4.1498,-4.1527,-4.1552,-4.1568,-4.1608,-4.1633,-4.1633,-4.1659,-4.1693,-4.1724,-4.1765,-4.1798,-4.1868,-4.1879,-4.1917,-4.191,-4.196,-4.1916,-4.1916,-4.1909,-4.1906,-4.1909,-4.1967,-4.1969,-4.197,-4.1971,0,-4.1566,-4.1568,-4.1604,-4.1642,-4.1672,-4.1702,-4.1729,-4.1751,-4.1754,-4.1784,-4.1828,-4.1854,-4.1906,-4.1947,-4.1985,-4.1999,-4.1985,-4.1985,-4.1997,-4.1997,-4.1993,-4.1994,-4.185,-4.1981,-4.198,-4.1979,-4.1978,-4.1978,-4.1643,-4.1678,-4.1704,-4.1745,-4.1767,-4.1794,-4.1827,-4.1839,-4.1876,-4.1918,-4.1917,-4.1965,-4.1991,-4.2041,-4.2058,-4.2096,-4.2079,-4.2097,-4.2101,-4.2105,-4.2108,-4.1989,-4.2103,-4.2103,-4.2102,-4.2102,-4.2102,0,-4.1749,-4.1766,-4.1804,-4.1844,-4.1876,-4.1863,-4.1893,-4.1921,-4.1964,-4.199,-4.2024,-4.2075,-4.2115,-4.2132,-4.2171,-4.2198,-4.2193,-4.2209,-4.2205,-4.2209,-4.2122,-4.2106,-4.2212,-4.2212,-4.2212,-4.2212,-4.2212,-4.2212,-4.1808,-4.1866,-4.1871,-4.194,-4.1957,-4.2004,-4.2023,-4.2047,-4.2068,-4.2126,-4.216,-4.2171,-4.2193,-4.2235,-4.2271,-4.2275,-4.2289,-4.2307,-4.2308,-4.2226,-4.2215,-4.2204,-4.219,-4.2311,-4.2311,-4.2392,-4.2392,-4.2393]},{"header":{"parameterUnit":"m.s-1","parameterCategory":1,"la1":30.2991,"la2":30.254,"lo1":-89.0895,"lo2":-89.0444,"dy":0.0017,"dx":0.0017,"nx":28,"ny":28,"refTime":"2023-04-02T21:00:00:Z","depth":0,"parameterNumber":3,"parameterNumberName":"V-component_of_WINDS"},"data":[0,0,0,0,0,0,0,0,0,0,0,0,0,0,0,0,0,0,0,0,0,0,0,0,0,0,0,0,0,0,0,0,0,0,0,0,0,0,0,0,0,0,0,0,0,0,0,0,0,0,0,0,0,0,0,0,0,0,3.1096,3.1097,0,3.1196,3.1197,3.1198,3.1237,3.1237,3.1237,3.1237,3.1335,3.1338,3.1341,0,0,0,0,0,0,0,0,0,0,0,0,0,3.0938,3.0941,3.1096,3.1097,3.1098,3.1196,3.1197,3.1198,3.1237,3.1237,3.1237,3.1236,3.1334,3.1338,3.1341,0,0,0,0,0,0,0,0,0,0,0,0,0,3.1019,3.0942,3.1096,3.113,3.1134,3.1195,3.1197,3.1199,3.1237,3.1237,3.1237,3.1236,3.1333,3.1337,3.1342,3.1376,0,0,3.1355,3.1357,0,0,0,0,0,0,0,0,3.1014,3.1025,3.1124,3.1128,3.1132,3.1204,3.1178,3.1258,3.1238,3.1198,3.1237,3.1236,3.1292,3.1299,3.1319,3.138,3.1384,3.1355,3.1358,3.1359,3.1361,0,0,0,0,0,0,0,3.1009,3.1021,3.1135,3.1125,3.113,3.114,3.1151,3.1193,3.1245,3.1201,3.1205,3.1216,3.1294,3.1314,3.1321,3.1386,3.1355,3.1359,3.1361,3.1363,3.1483,3.1484,0,0,0,0,0,0,3.0998,3.1016,3.1132,3.1138,3.1071,3.1143,3.1155,3.1181,3.1245,3.1255,3.1216,3.1217,3.1307,3.1316,3.1325,3.1371,3.1359,3.1363,3.1366,3.1482,3.1483,3.1484,0,0,0,0,0,0,3.0994,3.1008,3.1128,3.1078,3.1094,3.1146,3.1175,3.1183,3.1204,3.1256,3.1266,3.1228,3.1307,3.1319,3.1364,3.1375,3.1365,3.1369,3.1482,3.1483,3.1483,3.1461,0,0,0,0,0,0,3.099,3.1006,3.102,3.1078,3.1097,3.1165,3.1175,3.1186,3.1212,3.1214,3.127,3.1278,3.1308,3.1357,3.1368,3.138,3.1373,3.1481,3.1482,3.1483,3.1461,3.1461,3.1461,0,0,0,0,0,3.0984,3.1008,3.102,3.1034,3.1115,3.1166,3.1176,3.1211,3.1212,3.1227,3.1261,3.1277,3.1372,3.1361,3.1374,3.1388,3.148,3.1482,3.1483,3.1461,3.1461,3.1461,0,0,0,0,0,0,3.0948,3.1016,3.103,3.1075,3.1114,3.1172,3.1191,3.1209,3.1249,3.1249,3.1289,3.1302,3.1343,3.137,3.1357,3.1425,3.1427,3.1431,3.1406,3.1407,3.1407,3.1399,3.1376,0,0,0,0,0,3.0945,3.0982,3.104,3.1073,3.1092,3.1138,3.1162,3.1185,3.1228,3.1244,3.1281,3.1321,3.1361,3.1385,3.1424,3.1466,3.1479,3.1481,3.1481,3.1481,3.1484,3.151,3.1513,3.1488,3.1488,3.1488,0,0,3.094,3.0982,3.1002,3.1067,3.11,3.1137,3.1152,3.119,3.1218,3.1249,3.1295,3.1324,3.1371,3.1415,3.1436,3.1438,3.1494,3.1483,3.1483,3.1486,3.1512,3.1514,3.1516,3.1489,3.1489,3.1489,0,0,3.0949,3.0984,3.1017,3.1051,3.1103,3.1134,3.1142,3.1198,3.1219,3.1265,3.1291,3.1324,3.139,3.1424,3.1449,3.1474,3.1491,3.1486,3.1486,3.1511,3.1513,3.1515,3.1525,3.1528,3.1489,3.1488,3.1488,0,3.0935,3.0993,3.1031,3.1069,3.1097,3.113,3.1164,3.1194,3.1255,3.1274,3.1276,3.1362,3.1396,3.1449,3.1456,3.1475,3.1485,3.1479,3.151,3.1512,3.1514,3.1524,3.1528,3.1488,3.1488,3.1488,3.1488,0,3.0974,3.1014,3.1034,3.1094,3.1125,3.116,3.1204,3.123,3.1252,3.1283,3.133,3.1373,3.1422,3.1436,3.1456,3.1493,3.1493,3.1502,3.1505,3.1515,3.1525,3.1529,3.1486,3.1487,3.1487,3.1487,0,0,3.0961,3.1045,3.1052,3.1081,3.1142,3.1173,3.121,3.126,3.1282,3.1324,3.1356,3.1413,3.1423,3.1452,3.1476,3.1498,3.1518,3.1505,3.1507,3.1507,3.1562,3.1556,3.156,3.153,3.153,3.1531,3.1559,0,3.0979,3.1049,3.1086,3.114,3.1177,3.1211,3.1244,3.1284,3.1315,3.1351,3.1384,3.1425,3.1433,3.1452,3.1475,3.151,3.153,3.1509,3.156,3.1562,3.1548,3.1565,3.1557,3.1581,3.1563,3.1564,3.1564,0,3.1009,3.1053,3.1111,3.117,3.1187,3.1216,3.1266,3.13,3.1348,3.1368,3.1402,3.1427,3.1469,3.1469,3.1527,3.1512,3.1536,3.1557,3.1558,3.1564,3.1563,3.1572,3.1589,3.1593,3.1571,3.157,3.157,0,3.0995,3.1068,3.1113,3.1137,3.1206,3.1226,3.1256,3.1303,3.1332,3.1375,3.1394,3.1441,3.1467,3.1503,3.154,3.1537,3.1595,3.1598,3.1613,3.1612,3.1623,3.1622,3.1646,3.1638,3.1638,3.1638,3.1638,0,3.1011,3.1046,3.1108,3.1136,3.1176,3.1219,3.1257,3.1289,3.1332,3.1366,3.1397,3.1429,3.1476,3.1514,3.1544,3.1588,3.1599,3.1617,3.1624,3.1614,3.1612,3.163,3.163,3.1639,3.1639,3.1638,3.1638,0,3.1002,3.1045,3.1097,3.116,3.1176,3.1203,3.1257,3.1285,3.1318,3.1362,3.1375,3.1426,3.1472,3.1514,3.1574,3.1594,3.164,3.1649,3.1624,3.1628,3.1642,3.164,3.1678,3.1685,3.1672,3.1672,3.1672,0,3.101,3.1037,3.1104,3.1131,3.116,3.1202,3.1232,3.1275,3.1305,3.1363,3.1385,3.1434,3.1475,3.1548,3.159,3.1638,3.1648,3.1658,3.1655,3.1645,3.1649,3.1648,3.1651,3.1658,3.1658,3.1658,3.1658,0,3.1019,3.104,3.1082,3.1133,3.1169,3.121,3.1253,3.1272,3.1324,3.1356,3.1405,3.1437,3.1501,3.155,3.1602,3.1633,3.1654,3.1659,3.1665,3.1655,3.164,3.1649,3.1624,3.1657,3.1657,3.1657,3.1657,3.1657,3.1019,3.1046,3.1098,3.1145,3.1183,3.1222,3.1253,3.1291,3.1333,3.1389,3.1412,3.1462,3.1511,3.1585,3.1615,3.1655,3.1659,3.1667,3.167,3.1671,3.167,3.1634,3.1664,3.1665,3.1665,3.1665,3.1665,0,3.103,3.1066,3.1109,3.1169,3.1207,3.1226,3.1275,3.1304,3.1348,3.1393,3.1434,3.1492,3.154,3.1587,3.1638,3.1661,3.1672,3.1673,3.1671,3.1678,3.1663,3.1653,3.1663,3.1663,3.1663,3.1663,3.1663,3.1663,3.1041,3.1089,3.1116,3.1183,3.1219,3.1269,3.1296,3.1333,3.1369,3.1432,3.1473,3.1504,3.1551,3.1606,3.1651,3.1664,3.1681,3.1679,3.1695,3.1679,3.1679,3.1679,3.167,3.1682,3.1682,3.1707,3.1707,3.1707]}]]